Time,TemperatureF,DewpointF,PressureIn,WindDirection,WindDirectionDegrees,WindSpeedMPH,WindSpeedGustMPH,Humidity,HourlyPrecipIn,Conditions,Clouds,dailyrainin,SoftwareType,DateUTC
2013-11-07 00:02:00,43.2,36.5,30.05,SW,236,4.5,5.8,77,0.00,,---,0.00,VWS V13.01,2013-11-07 05:02:00,
2013-11-07 00:04:00,43.2,36.5,30.05,SW,236,4.5,5.4,77,0.00,,---,0.00,VWS V13.01,2013-11-07 05:04:00,
2013-11-07 00:05:00,43.2,36.5,30.05,SW,236,2.7,4.5,77,0.00,,---,0.00,VWS V13.01,2013-11-07 05:05:00,
2013-11-07 00:07:00,43.3,36.6,30.05,WSW,237,3.1,4.9,77,0.00,,---,0.00,VWS V13.01,2013-11-07 05:07:00,
2013-11-07 00:09:00,43.3,36.6,30.05,SW,236,4.0,4.5,77,0.00,,---,0.00,VWS V13.01,2013-11-07 05:09:00,
2013-11-07 00:14:00,43.3,36.6,30.05,WSW,257,3.1,6.9,77,0.00,,---,0.00,VWS V13.01,2013-11-07 05:14:00,
2013-11-07 00:19:00,43.3,36.6,30.05,NNW,330,4.5,5.4,77,0.00,,---,0.00,VWS V13.01,2013-11-07 05:19:00,
2013-11-07 00:22:00,43.2,36.5,30.05,West,263,2.7,6.3,77,0.00,,---,0.00,VWS V13.01,2013-11-07 05:22:00,
2013-11-07 00:26:00,43.2,36.5,30.05,SW,216,5.4,5.8,77,0.00,,---,0.00,VWS V13.01,2013-11-07 05:26:00,
2013-11-07 00:31:00,42.8,35.8,30.05,SSW,202,4.9,5.8,76,0.00,,---,0.00,VWS V13.01,2013-11-07 05:31:00,
2013-11-07 00:36:00,42.6,35.6,30.05,SSW,202,3.6,4.5,76,0.00,,---,0.00,VWS V13.01,2013-11-07 05:36:00,
2013-11-07 00:41:00,42.6,35.6,30.05,SW,217,0.0,3.6,76,0.00,,---,0.00,VWS V13.01,2013-11-07 05:41:00,
2013-11-07 00:46:00,42.4,35.4,30.05,SW,216,3.1,5.8,76,0.00,,---,0.00,VWS V13.01,2013-11-07 05:46:00,
2013-11-07 00:51:00,42.8,36.1,30.05,WSW,254,3.1,5.4,77,0.00,,---,0.00,VWS V13.01,2013-11-07 05:51:00,
2013-11-07 00:56:00,42.8,36.1,30.05,South,181,5.8,6.7,77,0.00,,---,0.00,VWS V13.01,2013-11-07 05:56:00,
2013-11-07 01:01:00,42.8,36.1,30.05,WSW,249,4.5,6.3,77,0.00,,---,0.00,VWS V13.01,2013-11-07 06:01:00,
2013-11-07 01:06:00,43.0,36.3,30.05,WSW,252,4.5,6.9,77,0.00,,---,0.00,VWS V13.01,2013-11-07 06:06:00,
2013-11-07 01:11:00,43.2,36.5,30.05,West,278,4.0,6.3,77,0.00,,---,0.00,VWS V13.01,2013-11-07 06:11:00,
2013-11-07 01:16:00,43.3,36.6,30.05,West,263,3.6,6.7,77,0.00,,---,0.00,VWS V13.01,2013-11-07 06:16:00,
2013-11-07 01:21:00,43.2,35.8,30.08,WSW,257,3.1,6.3,75,0.00,,---,0.00,VWS V13.01,2013-11-07 06:21:00,
2013-11-07 01:26:00,43.2,35.8,30.08,West,264,6.7,6.7,75,0.00,,---,0.00,VWS V13.01,2013-11-07 06:26:00,
2013-11-07 01:31:00,43.0,35.3,30.08,WNW,290,6.3,7.4,74,0.00,,---,0.00,VWS V13.01,2013-11-07 06:31:00,
2013-11-07 01:36:00,43.0,34.9,30.08,West,273,4.5,6.9,73,0.00,,---,0.00,VWS V13.01,2013-11-07 06:36:00,
2013-11-07 01:41:00,42.8,34.4,30.08,SW,233,7.8,8.3,72,0.00,,---,0.00,VWS V13.01,2013-11-07 06:41:00,
2013-11-07 01:46:00,42.6,33.9,30.08,WSW,257,6.3,7.4,71,0.00,,---,0.00,VWS V13.01,2013-11-07 06:46:00,
2013-11-07 01:51:00,42.4,33.0,30.08,SSE,164,4.0,5.8,69,0.00,,---,0.00,VWS V13.01,2013-11-07 06:51:00,
2013-11-07 01:56:00,42.3,32.5,30.08,SSW,203,3.1,4.0,68,0.00,,---,0.00,VWS V13.01,2013-11-07 06:56:00,
2013-11-07 02:01:00,42.1,32.3,30.08,West,259,5.4,5.8,68,0.00,,---,0.00,VWS V13.01,2013-11-07 07:01:00,
2013-11-07 02:06:00,42.1,31.9,30.08,SSW,209,3.6,6.7,67,0.00,,---,0.00,VWS V13.01,2013-11-07 07:06:00,
2013-11-07 02:11:00,41.9,31.8,30.08,SW,235,4.9,6.3,67,0.00,,---,0.00,VWS V13.01,2013-11-07 07:11:00,
2013-11-07 02:16:00,41.7,30.8,30.08,WNW,283,6.9,7.4,65,0.00,,---,0.00,VWS V13.01,2013-11-07 07:16:00,
2013-11-07 02:21:00,41.7,30.8,30.08,WSW,245,6.7,6.7,65,0.00,,---,0.00,VWS V13.01,2013-11-07 07:21:00,
2013-11-07 02:26:00,41.7,30.5,30.08,West,267,4.9,5.4,64,0.00,,---,0.00,VWS V13.01,2013-11-07 07:26:00,
2013-11-07 02:31:00,41.7,30.8,30.08,WSW,237,5.8,5.8,65,0.00,,---,0.00,VWS V13.01,2013-11-07 07:31:00,
2013-11-07 02:36:00,41.5,30.3,30.08,WSW,255,3.6,7.8,64,0.00,,---,0.00,VWS V13.01,2013-11-07 07:36:00,
2013-11-07 02:41:00,41.7,30.5,30.08,NW,304,5.4,5.4,64,0.00,,---,0.00,VWS V13.01,2013-11-07 07:41:00,
2013-11-07 02:46:00,41.5,29.9,30.08,West,273,4.9,6.3,63,0.00,,---,0.00,VWS V13.01,2013-11-07 07:46:00,
2013-11-07 02:51:00,41.5,29.9,30.08,SW,236,3.6,4.9,63,0.00,,---,0.00,VWS V13.01,2013-11-07 07:51:00,
2013-11-07 02:56:00,41.4,29.3,30.08,WSW,242,5.8,9.6,62,0.00,,---,0.00,VWS V13.01,2013-11-07 07:56:00,
2013-11-07 03:01:00,41.4,29.3,30.08,WSW,252,6.3,6.7,62,0.00,,---,0.00,VWS V13.01,2013-11-07 08:01:00,
2013-11-07 03:06:00,41.2,29.2,30.08,West,266,3.6,6.7,62,0.00,,---,0.00,VWS V13.01,2013-11-07 08:06:00,
2013-11-07 03:11:00,41.2,29.2,30.08,WSW,257,4.0,6.7,62,0.00,,---,0.00,VWS V13.01,2013-11-07 08:11:00,
2013-11-07 03:16:00,41.0,29.0,30.08,West,273,2.7,5.4,62,0.00,,---,0.00,VWS V13.01,2013-11-07 08:16:00,
2013-11-07 03:21:00,40.8,28.8,30.08,WSW,237,3.1,4.9,62,0.00,,---,0.00,VWS V13.01,2013-11-07 08:21:00,
2013-11-07 03:26:00,40.8,28.4,30.08,SW,229,3.6,5.4,61,0.00,,---,0.00,VWS V13.01,2013-11-07 08:26:00,
2013-11-07 03:31:00,40.5,28.1,30.08,West,272,5.8,5.8,61,0.00,,---,0.00,VWS V13.01,2013-11-07 08:31:00,
2013-11-07 03:36:00,40.3,27.9,30.08,West,261,3.6,6.7,61,0.00,,---,0.00,VWS V13.01,2013-11-07 08:36:00,
2013-11-07 03:41:00,39.9,27.6,30.08,SW,228,3.6,4.9,61,0.00,,---,0.00,VWS V13.01,2013-11-07 08:41:00,
2013-11-07 03:46:00,39.7,27.4,30.08,SW,234,7.4,8.3,61,0.00,,---,0.00,VWS V13.01,2013-11-07 08:46:00,
2013-11-07 03:51:00,39.7,27.4,30.08,WSW,254,5.4,9.2,61,0.00,,---,0.00,VWS V13.01,2013-11-07 08:51:00,
2013-11-07 03:56:00,39.6,27.6,30.08,WSW,248,5.4,6.7,62,0.00,,---,0.00,VWS V13.01,2013-11-07 08:56:00,
2013-11-07 04:01:00,39.4,27.1,30.08,West,266,5.4,9.6,61,0.00,,---,0.00,VWS V13.01,2013-11-07 09:01:00,
2013-11-07 04:06:00,39.4,26.7,30.11,West,264,5.8,9.2,60,0.00,,---,0.00,VWS V13.01,2013-11-07 09:06:00,
2013-11-07 04:11:00,39.4,27.1,30.11,West,263,6.3,7.4,61,0.00,,---,0.00,VWS V13.01,2013-11-07 09:11:00,
2013-11-07 04:16:00,39.4,27.1,30.11,WNW,286,5.8,5.8,61,0.00,,---,0.00,VWS V13.01,2013-11-07 09:16:00,
2013-11-07 04:21:00,39.4,27.1,30.11,West,278,2.7,4.9,61,0.00,,---,0.00,VWS V13.01,2013-11-07 09:21:00,
2013-11-07 04:26:00,39.2,26.5,30.11,West,276,4.0,6.7,60,0.00,,---,0.00,VWS V13.01,2013-11-07 09:26:00,
2013-11-07 04:31:00,38.7,24.8,30.11,WSW,256,5.4,7.4,57,0.00,,---,0.00,VWS V13.01,2013-11-07 09:31:00,
2013-11-07 04:36:00,38.5,24.2,30.11,SW,230,5.8,6.9,56,0.00,,---,0.00,VWS V13.01,2013-11-07 09:36:00,
2013-11-07 04:41:00,38.5,24.6,30.11,SW,230,3.6,5.4,57,0.00,,---,0.00,VWS V13.01,2013-11-07 09:41:00,
2013-11-07 04:46:00,38.3,24.4,30.11,WSW,253,3.6,4.9,57,0.00,,---,0.00,VWS V13.01,2013-11-07 09:46:00,
2013-11-07 04:51:00,38.1,24.7,30.11,WSW,243,4.0,4.0,58,0.00,,---,0.00,VWS V13.01,2013-11-07 09:51:00,
2013-11-07 04:56:00,38.1,24.7,30.11,WSW,242,4.5,4.5,58,0.00,,---,0.00,VWS V13.01,2013-11-07 09:56:00,
2013-11-07 05:01:00,37.9,24.9,30.11,West,264,4.0,5.4,59,0.00,,---,0.00,VWS V13.01,2013-11-07 10:01:00,
2013-11-07 05:06:00,37.9,24.9,30.11,WSW,249,0.0,0.0,59,0.00,,---,0.00,VWS V13.01,2013-11-07 10:06:00,
2013-11-07 05:11:00,37.8,24.7,30.11,WSW,249,0.0,2.7,59,0.00,,---,0.00,VWS V13.01,2013-11-07 10:11:00,
2013-11-07 05:16:00,37.6,24.6,30.11,WSW,250,2.7,4.0,59,0.00,,---,0.00,VWS V13.01,2013-11-07 10:16:00,
2013-11-07 05:21:00,37.6,24.6,30.11,WSW,250,0.0,2.7,59,0.00,,---,0.00,VWS V13.01,2013-11-07 10:21:00,
2013-11-07 05:26:00,37.4,24.4,30.11,WSW,249,0.0,0.0,59,0.00,,---,0.00,VWS V13.01,2013-11-07 10:26:00,
2013-11-07 05:31:00,37.4,24.4,30.11,WSW,249,0.0,4.0,59,0.00,,---,0.00,VWS V13.01,2013-11-07 10:31:00,
2013-11-07 05:36:00,37.0,23.6,30.14,SW,223,0.0,3.1,58,0.00,,---,0.00,VWS V13.01,2013-11-07 10:36:00,
2013-11-07 05:41:00,37.0,24.1,30.14,SW,222,0.0,0.0,59,0.00,,---,0.00,VWS V13.01,2013-11-07 10:41:00,
2013-11-07 05:46:00,36.9,23.9,30.14,SW,222,2.7,4.5,59,0.00,,---,0.00,VWS V13.01,2013-11-07 10:46:00,
2013-11-07 05:51:00,36.7,23.7,30.14,SW,223,2.7,3.1,59,0.00,,---,0.00,VWS V13.01,2013-11-07 10:51:00,
2013-11-07 05:56:00,36.7,23.7,30.14,SW,222,0.0,0.0,59,0.00,,---,0.00,VWS V13.01,2013-11-07 10:56:00,
2013-11-07 06:01:00,36.5,23.5,30.14,SW,223,0.0,0.0,59,0.00,,---,0.00,VWS V13.01,2013-11-07 11:01:00,
2013-11-07 06:06:00,36.5,24.0,30.14,SW,223,2.7,3.1,60,0.00,,---,0.00,VWS V13.01,2013-11-07 11:06:00,
2013-11-07 06:11:00,36.3,23.8,30.14,SW,222,3.6,3.6,60,0.00,,---,0.00,VWS V13.01,2013-11-07 11:11:00,
2013-11-07 06:16:00,36.5,24.3,30.14,SW,223,3.1,3.6,61,0.00,,---,0.00,VWS V13.01,2013-11-07 11:16:00,
2013-11-07 06:21:00,36.7,24.9,30.14,SW,223,0.0,0.0,62,0.00,,---,0.00,VWS V13.01,2013-11-07 11:21:00,
2013-11-07 06:26:00,36.5,25.5,30.14,SW,222,3.6,4.0,64,0.00,,---,0.00,VWS V13.01,2013-11-07 11:26:00,
2013-11-07 06:31:00,36.1,25.5,30.14,SW,223,3.6,4.0,65,0.00,,---,0.00,VWS V13.01,2013-11-07 11:31:00,
2013-11-07 06:35:00,36.1,25.5,30.14,SW,225,3.6,4.0,65,0.00,,---,0.00,VWS V13.01,2013-11-07 11:35:00,
2013-11-07 06:40:00,35.8,25.5,30.14,SW,225,3.1,4.0,66,0.00,,---,0.00,VWS V13.01,2013-11-07 11:40:00,
2013-11-07 06:46:00,35.6,25.4,30.14,SW,225,3.1,3.6,66,0.00,,---,0.00,VWS V13.01,2013-11-07 11:46:00,
2013-11-07 06:51:00,35.6,25.7,30.14,SW,225,2.7,3.1,67,0.00,,---,0.00,VWS V13.01,2013-11-07 11:51:00,
2013-11-07 06:56:00,35.6,26.1,30.14,SW,225,3.1,3.1,68,0.00,,---,0.00,VWS V13.01,2013-11-07 11:56:00,
2013-11-07 07:01:00,35.4,25.9,30.14,SW,225,3.1,4.0,68,0.00,,---,0.00,VWS V13.01,2013-11-07 12:01:00,
2013-11-07 07:06:00,35.2,26.1,30.14,SW,225,4.0,4.0,69,0.00,,---,0.00,VWS V13.01,2013-11-07 12:06:00,
2013-11-07 07:11:00,35.4,26.6,30.14,SW,225,3.1,3.6,70,0.00,,---,0.00,VWS V13.01,2013-11-07 12:11:00,
2013-11-07 07:16:00,35.4,26.3,30.14,SW,225,0.0,0.0,69,0.00,,---,0.00,VWS V13.01,2013-11-07 12:16:00,
2013-11-07 07:21:00,35.2,26.1,30.14,SW,225,3.6,3.6,69,0.00,,---,0.00,VWS V13.01,2013-11-07 12:21:00,
2013-11-07 07:26:00,35.4,26.3,30.14,SW,225,3.1,3.6,69,0.00,,---,0.00,VWS V13.01,2013-11-07 12:26:00,
2013-11-07 07:31:00,35.4,26.3,30.14,SW,225,0.0,3.6,69,0.00,,---,0.00,VWS V13.01,2013-11-07 12:31:00,
2013-11-07 07:36:00,35.6,26.8,30.17,SW,225,3.1,3.6,70,0.00,,---,0.00,VWS V13.01,2013-11-07 12:36:00,
2013-11-07 07:41:00,35.6,26.8,30.17,SW,225,3.6,4.0,70,0.00,,---,0.00,VWS V13.01,2013-11-07 12:41:00,
2013-11-07 07:46:00,35.4,26.6,30.17,SW,225,3.6,3.6,70,0.00,,---,0.00,VWS V13.01,2013-11-07 12:46:00,
2013-11-07 07:51:00,35.6,26.8,30.17,SW,224,3.6,3.6,70,0.00,,---,0.00,VWS V13.01,2013-11-07 12:51:00,
2013-11-07 07:56:00,35.8,26.6,30.17,SW,224,3.1,4.0,69,0.00,,---,0.00,VWS V13.01,2013-11-07 12:56:00,
2013-11-07 08:02:00,36.0,26.8,30.17,SW,225,2.7,4.5,69,0.00,,---,0.00,VWS V13.01,2013-11-07 13:02:00,
2013-11-07 08:07:00,36.1,27.0,30.17,SW,225,0.0,4.5,69,0.00,,---,0.00,VWS V13.01,2013-11-07 13:07:00,
2013-11-07 08:12:00,36.3,27.1,30.17,SW,225,2.7,4.0,69,0.00,,---,0.00,VWS V13.01,2013-11-07 13:12:00,
2013-11-07 08:17:00,36.3,26.8,30.17,SSW,207,2.7,4.9,68,0.00,,---,0.00,VWS V13.01,2013-11-07 13:17:00,
2013-11-07 08:22:00,36.5,26.6,30.17,South,186,4.9,6.7,67,0.00,,---,0.00,VWS V13.01,2013-11-07 13:22:00,
2013-11-07 08:27:00,36.5,25.9,30.17,SSW,211,4.0,6.9,65,0.00,,---,0.00,VWS V13.01,2013-11-07 13:27:00,
2013-11-07 08:32:00,36.9,26.2,30.17,South,179,4.0,6.3,65,0.00,,---,0.00,VWS V13.01,2013-11-07 13:32:00,
2013-11-07 08:37:00,37.0,26.4,30.17,SSW,201,3.6,6.3,65,0.00,,---,0.00,VWS V13.01,2013-11-07 13:37:00,
2013-11-07 08:42:00,37.4,26.4,30.17,SSW,212,4.0,5.8,64,0.00,,---,0.00,VWS V13.01,2013-11-07 13:42:00,
2013-11-07 08:48:00,37.6,26.5,30.17,SSW,208,4.5,5.4,64,0.00,,---,0.00,VWS V13.01,2013-11-07 13:48:00,
2013-11-07 08:53:00,37.6,25.8,30.17,SSE,168,6.3,7.8,62,0.00,,---,0.00,VWS V13.01,2013-11-07 13:53:00,
2013-11-07 08:58:00,37.8,25.5,30.17,SW,220,5.4,9.6,61,0.00,,---,0.00,VWS V13.01,2013-11-07 13:58:00,
2013-11-07 09:03:00,37.9,25.3,30.17,SSW,195,6.3,8.7,60,0.00,,---,0.00,VWS V13.01,2013-11-07 14:03:00,
2013-11-07 09:08:00,38.1,25.5,30.17,South,187,6.7,7.4,60,0.00,,---,0.00,VWS V13.01,2013-11-07 14:08:00,
2013-11-07 09:13:00,38.5,25.8,30.17,SSW,208,4.0,4.9,60,0.00,,---,0.00,VWS V13.01,2013-11-07 14:13:00,
2013-11-07 09:18:00,38.8,26.2,30.17,West,271,4.9,5.4,60,0.00,,---,0.00,VWS V13.01,2013-11-07 14:18:00,
2013-11-07 09:23:00,39.4,26.7,30.17,South,173,6.9,6.9,60,0.00,,---,0.00,VWS V13.01,2013-11-07 14:23:00,
2013-11-07 09:28:00,39.7,26.2,30.17,SW,235,2.7,4.9,58,0.00,,---,0.00,VWS V13.01,2013-11-07 14:28:00,
2013-11-07 09:33:00,40.5,27.3,30.17,South,186,4.0,4.9,59,0.00,,---,0.00,VWS V13.01,2013-11-07 14:33:00,
2013-11-07 09:38:00,40.6,27.0,30.17,SSW,195,3.1,6.3,58,0.00,,---,0.00,VWS V13.01,2013-11-07 14:38:00,
2013-11-07 09:43:00,41.0,27.0,30.17,West,266,4.0,5.4,57,0.00,,---,0.00,VWS V13.01,2013-11-07 14:43:00,
2013-11-07 09:48:00,41.7,27.6,30.17,WNW,299,4.0,6.7,57,0.00,,---,0.00,VWS V13.01,2013-11-07 14:48:00,
2013-11-07 09:53:00,42.3,27.3,30.17,West,273,4.5,5.8,55,0.00,,---,0.00,VWS V13.01,2013-11-07 14:53:00,
2013-11-07 09:58:00,42.4,26.1,30.17,West,272,6.9,10.1,52,0.00,,---,0.00,VWS V13.01,2013-11-07 14:58:00,
2013-11-07 10:03:00,42.8,26.4,30.17,WSW,237,3.1,5.4,52,0.00,,---,0.00,VWS V13.01,2013-11-07 15:03:00,
2013-11-07 10:08:00,43.3,26.4,30.17,SW,222,4.5,6.9,51,0.00,,---,0.00,VWS V13.01,2013-11-07 15:08:00,
2013-11-07 10:13:00,43.0,25.1,30.17,West,263,6.3,6.9,49,0.00,,---,0.00,VWS V13.01,2013-11-07 15:13:00,
2013-11-07 10:18:00,43.2,25.8,30.17,SSW,209,4.0,6.7,50,0.00,,---,0.00,VWS V13.01,2013-11-07 15:18:00,
2013-11-07 10:23:00,43.2,25.8,30.17,WSW,252,6.7,12.5,50,0.00,,---,0.00,VWS V13.01,2013-11-07 15:23:00,
2013-11-07 10:28:00,43.3,25.5,30.17,West,275,6.3,8.3,49,0.00,,---,0.00,VWS V13.01,2013-11-07 15:28:00,
2013-11-07 10:33:00,43.7,25.8,30.17,SSW,196,3.6,6.7,49,0.00,,---,0.00,VWS V13.01,2013-11-07 15:33:00,
2013-11-07 10:38:00,43.5,25.6,30.17,WSW,251,6.3,10.5,49,0.00,,---,0.00,VWS V13.01,2013-11-07 15:38:00,
2013-11-07 10:43:00,43.2,24.8,30.17,WSW,247,4.9,5.8,48,0.00,,---,0.00,VWS V13.01,2013-11-07 15:43:00,
2013-11-07 10:48:00,43.3,25.5,30.17,South,188,7.4,7.4,49,0.00,,---,0.00,VWS V13.01,2013-11-07 15:48:00,
2013-11-07 10:53:00,44.1,26.1,30.17,West,275,6.7,6.7,49,0.00,,---,0.00,VWS V13.01,2013-11-07 15:53:00,
2013-11-07 10:58:00,44.6,25.1,30.17,SSW,197,9.2,15.4,46,0.00,,---,0.00,VWS V13.01,2013-11-07 15:58:00,
2013-11-07 11:03:00,44.6,26.1,30.17,SW,222,10.1,10.1,48,0.00,,---,0.00,VWS V13.01,2013-11-07 16:03:00,
2013-11-07 11:08:00,44.4,24.4,30.17,WSW,250,4.5,6.3,45,0.00,,---,0.00,VWS V13.01,2013-11-07 16:08:00,
2013-11-07 11:13:00,44.2,24.8,30.17,SSW,193,5.4,6.7,46,0.00,,---,0.00,VWS V13.01,2013-11-07 16:13:00,
2013-11-07 11:18:00,44.2,24.8,30.20,SW,229,3.6,7.4,46,0.00,,---,0.00,VWS V13.01,2013-11-07 16:18:00,
2013-11-07 11:23:00,45.5,24.9,30.20,WSW,244,4.9,12.1,44,0.00,,---,0.00,VWS V13.01,2013-11-07 16:23:00,
2013-11-07 11:29:00,46.9,25.1,30.20,WSW,256,3.1,7.8,42,0.00,,---,0.00,VWS V13.01,2013-11-07 16:29:00,
2013-11-07 11:34:00,46.9,23.9,30.20,SSW,193,11.6,11.6,40,0.00,,---,0.00,VWS V13.01,2013-11-07 16:34:00,
2013-11-07 11:39:00,47.3,24.8,30.20,SSW,195,11.6,11.6,41,0.00,,---,0.00,VWS V13.01,2013-11-07 16:39:00,
2013-11-07 11:44:00,47.8,23.5,30.20,South,182,9.2,9.2,38,0.00,,---,0.00,VWS V13.01,2013-11-07 16:44:00,
2013-11-07 11:49:00,47.7,23.3,30.17,SSW,212,6.9,15.2,38,0.00,,---,0.00,VWS V13.01,2013-11-07 16:49:00,
2013-11-07 11:54:00,48.0,24.3,30.17,South,169,6.7,10.1,39,0.00,,---,0.00,VWS V13.01,2013-11-07 16:54:00,
2013-11-07 11:59:00,47.8,22.9,30.17,West,268,11.2,11.2,37,0.00,,---,0.00,VWS V13.01,2013-11-07 16:59:00,
2013-11-07 12:04:00,48.7,24.3,30.17,WSW,249,6.9,11.0,38,0.00,,---,0.00,VWS V13.01,2013-11-07 17:04:00,
2013-11-07 12:09:00,48.2,23.2,30.17,SSW,194,8.3,12.5,37,0.00,,---,0.00,VWS V13.01,2013-11-07 17:09:00,
2013-11-07 12:14:00,48.0,21.7,30.17,NNE,22,4.9,11.6,35,0.00,,---,0.00,VWS V13.01,2013-11-07 17:14:00,
2013-11-07 12:19:00,48.0,23.0,30.17,SSW,206,5.4,7.4,37,0.00,,---,0.00,VWS V13.01,2013-11-07 17:19:00,
2013-11-07 12:24:00,48.2,22.5,30.17,WSW,243,4.0,7.8,36,0.00,,---,0.00,VWS V13.01,2013-11-07 17:24:00,
2013-11-07 12:29:00,46.6,21.1,30.17,WNW,282,3.1,6.3,36,0.00,,---,0.00,VWS V13.01,2013-11-07 17:29:00,
2013-11-07 12:34:00,46.8,21.9,30.17,South,177,5.8,10.1,37,0.00,,---,0.00,VWS V13.01,2013-11-07 17:34:00,
2013-11-07 12:39:00,48.4,23.3,30.17,WNW,303,8.7,8.7,37,0.00,,---,0.00,VWS V13.01,2013-11-07 17:39:00,
2013-11-07 12:44:00,49.3,23.5,30.17,WSW,256,4.5,8.3,36,0.00,,---,0.00,VWS V13.01,2013-11-07 17:44:00,
2013-11-07 12:49:00,49.8,20.4,30.17,WSW,251,6.3,11.6,31,0.00,,---,0.00,VWS V13.01,2013-11-07 17:49:00,
2013-11-07 12:55:00,49.5,20.1,30.17,SE,128,6.9,13.0,31,0.00,,---,0.00,VWS V13.01,2013-11-07 17:55:00,
2013-11-07 12:59:00,49.5,19.3,30.17,WNW,282,5.8,14.3,30,0.00,,---,0.00,VWS V13.01,2013-11-07 17:59:00,
2013-11-07 13:05:00,49.5,18.5,30.17,SW,233,7.4,8.7,29,0.00,,---,0.00,VWS V13.01,2013-11-07 18:05:00,
2013-11-07 13:10:00,48.4,17.6,30.17,SW,221,5.8,11.6,29,0.00,,---,0.00,VWS V13.01,2013-11-07 18:10:00,
2013-11-07 13:15:00,48.7,18.7,30.17,SW,217,11.2,11.2,30,0.00,,---,0.00,VWS V13.01,2013-11-07 18:15:00,
2013-11-07 13:20:00,48.4,17.6,30.14,SSW,193,10.1,10.1,29,0.00,,---,0.00,VWS V13.01,2013-11-07 18:20:00,
2013-11-07 13:25:00,49.3,19.2,30.14,West,263,6.9,11.2,30,0.00,,---,0.00,VWS V13.01,2013-11-07 18:25:00,
2013-11-07 13:30:00,50.2,18.4,30.14,SSW,213,6.3,11.6,28,0.00,,---,0.00,VWS V13.01,2013-11-07 18:30:00,
2013-11-07 13:35:00,50.0,18.2,30.14,SSW,197,15.2,15.2,28,0.00,,---,0.00,VWS V13.01,2013-11-07 18:35:00,
2013-11-07 13:40:00,49.8,18.0,30.14,West,272,5.4,14.3,28,0.00,,---,0.00,VWS V13.01,2013-11-07 18:40:00,
2013-11-07 13:45:00,50.0,19.0,30.14,SSW,201,6.3,10.1,29,0.00,,---,0.00,VWS V13.01,2013-11-07 18:45:00,
2013-11-07 13:51:00,50.7,19.6,30.14,SSW,198,6.7,6.9,29,0.00,,---,0.00,VWS V13.01,2013-11-07 18:51:00,
2013-11-07 13:56:00,50.5,18.7,30.14,SW,231,6.3,11.6,28,0.00,,---,0.00,VWS V13.01,2013-11-07 18:56:00,
2013-11-07 14:01:00,48.9,17.3,30.14,SW,223,6.9,12.1,28,0.00,,---,0.00,VWS V13.01,2013-11-07 19:01:00,
2013-11-07 14:06:00,48.9,18.1,30.14,SW,222,6.7,10.1,29,0.00,,---,0.00,VWS V13.01,2013-11-07 19:06:00,
2013-11-07 14:11:00,48.4,18.4,30.14,WNW,283,7.8,12.5,30,0.00,,---,0.00,VWS V13.01,2013-11-07 19:11:00,
2013-11-07 14:16:00,48.6,19.3,30.14,South,187,7.4,7.4,31,0.00,,---,0.00,VWS V13.01,2013-11-07 19:16:00,
2013-11-07 14:21:00,47.8,19.4,30.14,SW,232,6.3,9.6,32,0.00,,---,0.00,VWS V13.01,2013-11-07 19:21:00,
2013-11-07 14:26:00,48.0,21.7,30.14,SW,226,3.6,6.9,35,0.00,,---,0.00,VWS V13.01,2013-11-07 19:26:00,
2013-11-07 14:31:00,48.6,22.8,30.14,South,178,13.0,13.9,36,0.00,,---,0.00,VWS V13.01,2013-11-07 19:31:00,
2013-11-07 14:36:00,48.7,22.3,30.14,SSE,167,6.3,7.8,35,0.00,,---,0.00,VWS V13.01,2013-11-07 19:36:00,
2013-11-07 14:41:00,48.0,23.0,30.14,West,264,6.3,9.6,37,0.00,,---,0.00,VWS V13.01,2013-11-07 19:41:00,
2013-11-07 14:46:00,47.8,22.9,30.14,South,170,7.4,9.6,37,0.00,,---,0.00,VWS V13.01,2013-11-07 19:46:00,
2013-11-07 14:51:00,47.1,22.8,30.14,SSE,147,8.7,11.0,38,0.00,,---,0.00,VWS V13.01,2013-11-07 19:51:00,
2013-11-07 14:56:00,46.6,23.0,30.14,WSW,250,8.3,15.9,39,0.00,,---,0.00,VWS V13.01,2013-11-07 19:56:00,
2013-11-07 15:01:00,46.2,22.6,30.14,SSW,207,7.4,9.2,39,0.00,,---,0.00,VWS V13.01,2013-11-07 20:01:00,
2013-11-07 15:06:00,46.0,23.7,30.14,SSE,155,6.3,9.2,41,0.00,,---,0.00,VWS V13.01,2013-11-07 20:06:00,
2013-11-07 15:11:00,46.0,23.7,30.14,SSW,200,4.9,8.7,41,0.00,,---,0.00,VWS V13.01,2013-11-07 20:11:00,
2013-11-07 15:16:00,45.9,23.5,30.14,WSW,248,4.9,11.6,41,0.00,,---,0.00,VWS V13.01,2013-11-07 20:16:00,
2013-11-07 15:21:00,45.9,23.5,30.14,West,278,8.3,11.2,41,0.00,,---,0.00,VWS V13.01,2013-11-07 20:21:00,
2013-11-07 15:26:00,45.7,23.4,30.14,SSW,204,5.4,9.2,41,0.00,,---,0.00,VWS V13.01,2013-11-07 20:26:00,
2013-11-07 15:31:00,45.1,22.9,30.14,SSW,194,4.5,12.1,41,0.00,,---,0.00,VWS V13.01,2013-11-07 20:31:00,
2013-11-07 15:36:00,44.6,22.9,30.14,SW,232,7.8,11.0,42,0.00,,---,0.00,VWS V13.01,2013-11-07 20:36:00,
2013-11-07 15:41:00,44.4,23.3,30.14,SSE,164,7.4,11.0,43,0.00,,---,0.00,VWS V13.01,2013-11-07 20:41:00,
2013-11-07 15:46:00,45.0,24.9,30.14,South,176,5.4,8.3,45,0.00,,---,0.00,VWS V13.01,2013-11-07 20:46:00,
2013-11-07 15:51:00,45.3,24.7,30.14,SW,230,7.8,8.7,44,0.00,,---,0.00,VWS V13.01,2013-11-07 20:51:00,
2013-11-07 15:56:00,45.3,25.2,30.14,West,278,5.8,6.7,45,0.00,,---,0.00,VWS V13.01,2013-11-07 20:56:00,
2013-11-07 16:01:00,45.5,24.9,30.14,West,264,4.9,4.9,44,0.00,,---,0.00,VWS V13.01,2013-11-07 21:01:00,
2013-11-07 16:06:00,45.7,25.6,30.14,West,274,3.1,4.5,45,0.00,,---,0.00,VWS V13.01,2013-11-07 21:06:00,
2013-11-07 16:11:00,45.1,24.0,30.14,West,263,6.7,12.1,43,0.00,,---,0.00,VWS V13.01,2013-11-07 21:11:00,
2013-11-07 16:16:00,44.6,24.0,30.14,SSE,151,6.3,6.7,44,0.00,,---,0.00,VWS V13.01,2013-11-07 21:16:00,
2013-11-07 16:21:00,44.2,24.8,30.14,WSW,249,5.4,5.8,46,0.00,,---,0.00,VWS V13.01,2013-11-07 21:21:00,
2013-11-07 16:26:00,44.4,25.5,30.14,SW,222,6.7,6.7,47,0.00,,---,0.00,VWS V13.01,2013-11-07 21:26:00,
2013-11-07 16:31:00,44.2,24.8,30.14,WNW,287,2.7,5.4,46,0.00,,---,0.00,VWS V13.01,2013-11-07 21:31:00,
2013-11-07 16:36:00,44.2,24.3,30.14,SSW,208,3.6,6.9,45,0.00,,---,0.00,VWS V13.01,2013-11-07 21:36:00,
2013-11-07 16:41:00,44.1,23.6,30.14,SW,228,5.8,6.3,44,0.00,,---,0.00,VWS V13.01,2013-11-07 21:41:00,
2013-11-07 16:46:00,43.7,22.7,30.14,SW,236,4.5,5.4,43,0.00,,---,0.00,VWS V13.01,2013-11-07 21:46:00,
2013-11-07 16:51:00,43.7,23.2,30.14,South,190,4.0,7.4,44,0.00,,---,0.00,VWS V13.01,2013-11-07 21:51:00,
2013-11-07 16:56:00,43.5,23.1,30.14,SSW,207,4.9,6.3,44,0.00,,---,0.00,VWS V13.01,2013-11-07 21:56:00,
2013-11-07 17:01:00,43.7,24.3,30.14,SW,227,4.0,5.8,46,0.00,,---,0.00,VWS V13.01,2013-11-07 22:01:00,
2013-11-07 17:06:00,43.7,23.8,30.14,SSW,196,3.1,5.8,45,0.00,,---,0.00,VWS V13.01,2013-11-07 22:06:00,
2013-11-07 17:11:00,43.5,23.6,30.14,SW,228,4.9,4.9,45,0.00,,---,0.00,VWS V13.01,2013-11-07 22:11:00,
2013-11-07 17:16:00,43.5,23.1,30.14,South,187,2.7,5.8,44,0.00,,---,0.00,VWS V13.01,2013-11-07 22:16:00,
2013-11-07 17:21:00,43.5,23.6,30.14,WSW,248,4.0,4.9,45,0.00,,---,0.00,VWS V13.01,2013-11-07 22:21:00,
2013-11-07 17:26:00,43.7,23.8,30.14,SSW,198,4.9,5.8,45,0.00,,---,0.00,VWS V13.01,2013-11-07 22:26:00,
2013-11-07 17:31:00,43.3,23.4,30.14,WSW,243,8.3,10.1,45,0.00,,---,0.00,VWS V13.01,2013-11-07 22:31:00,
2013-11-07 17:36:00,42.3,25.0,30.14,WSW,239,5.4,10.1,50,0.00,,---,0.00,VWS V13.01,2013-11-07 22:36:00,
2013-11-07 17:41:00,41.9,26.9,30.14,West,268,9.2,9.2,55,0.00,,---,0.00,VWS V13.01,2013-11-07 22:41:00,
2013-11-07 17:46:00,41.5,27.0,30.14,SSW,210,8.3,8.7,56,0.00,,---,0.00,VWS V13.01,2013-11-07 22:46:00,
2013-11-07 17:51:00,41.0,27.0,30.14,South,180,9.6,10.1,57,0.00,,---,0.00,VWS V13.01,2013-11-07 22:51:00,
2013-11-07 17:56:00,41.2,28.0,30.14,WSW,238,3.1,4.5,59,0.00,,---,0.00,VWS V13.01,2013-11-07 22:56:00,
2013-11-07 18:01:00,41.5,28.3,30.14,SW,217,4.0,4.9,59,0.00,,---,0.00,VWS V13.01,2013-11-07 23:01:00,
2013-11-07 18:06:00,42.1,29.2,30.14,WSW,246,3.6,4.9,60,0.00,,---,0.00,VWS V13.01,2013-11-07 23:06:00,
2013-11-07 18:11:00,42.4,29.1,30.14,WSW,253,4.0,5.8,59,0.00,,---,0.00,VWS V13.01,2013-11-07 23:11:00,
2013-11-07 18:16:00,42.6,29.3,30.14,West,280,4.5,6.9,59,0.00,,---,0.00,VWS V13.01,2013-11-07 23:16:00,
2013-11-07 18:21:00,42.8,29.5,30.14,WSW,251,4.0,6.7,59,0.00,,---,0.00,VWS V13.01,2013-11-07 23:21:00,
2013-11-07 18:26:00,42.3,28.5,30.14,SW,219,2.7,10.1,58,0.00,,---,0.00,VWS V13.01,2013-11-07 23:26:00,
2013-11-07 18:31:00,41.7,28.9,30.14,West,266,6.9,6.9,60,0.00,,---,0.00,VWS V13.01,2013-11-07 23:31:00,
2013-11-07 18:36:00,41.5,29.5,30.14,WNW,291,4.0,5.8,62,0.00,,---,0.00,VWS V13.01,2013-11-07 23:36:00,
2013-11-07 18:41:00,41.0,29.0,30.14,South,171,4.9,10.5,62,0.00,,---,0.00,VWS V13.01,2013-11-07 23:41:00,
2013-11-07 18:46:00,40.3,28.7,30.14,SW,218,5.4,8.7,63,0.00,,---,0.00,VWS V13.01,2013-11-07 23:46:00,
2013-11-07 18:51:00,39.6,29.5,30.14,South,191,6.3,11.0,67,0.00,,---,0.00,VWS V13.01,2013-11-07 23:51:00,
2013-11-07 18:57:00,39.2,30.2,30.14,SSW,203,5.8,9.2,70,0.00,,---,0.00,VWS V13.01,2013-11-07 23:57:00,
2013-11-07 19:02:00,38.8,30.3,30.14,SSW,201,6.3,6.9,71,0.00,,---,0.00,VWS V13.01,2013-11-08 00:02:00,
2013-11-07 19:07:00,38.8,30.6,30.14,SW,219,4.5,6.7,72,0.00,,---,0.00,VWS V13.01,2013-11-08 00:07:00,
2013-11-07 19:13:00,39.0,31.5,30.14,SSW,212,4.5,6.9,74,0.00,,---,0.00,VWS V13.01,2013-11-08 00:13:00,
2013-11-07 19:18:00,38.8,31.3,30.14,SSW,195,4.0,6.9,74,0.00,,---,0.00,VWS V13.01,2013-11-08 00:18:00,
2013-11-07 19:24:00,38.7,31.4,30.14,SSE,159,7.8,9.6,75,0.00,,---,0.00,VWS V13.01,2013-11-08 00:24:00,
2013-11-07 19:29:00,38.7,31.4,30.14,SSW,201,5.4,8.3,75,0.00,,---,0.00,VWS V13.01,2013-11-08 00:29:00,
2013-11-07 19:34:00,38.7,31.8,30.14,SSW,202,4.0,6.3,76,0.00,,---,0.00,VWS V13.01,2013-11-08 00:34:00,
2013-11-07 19:39:00,38.8,31.9,30.14,SSW,208,4.9,6.7,76,0.00,,---,0.00,VWS V13.01,2013-11-08 00:39:00,
2013-11-07 19:44:00,39.0,32.4,30.14,SSW,207,3.6,6.9,77,0.00,,---,0.00,VWS V13.01,2013-11-08 00:44:00,
2013-11-07 19:49:00,39.0,32.4,30.14,SSW,204,4.5,6.3,77,0.00,,---,0.00,VWS V13.01,2013-11-08 00:49:00,
2013-11-07 19:54:00,39.2,32.6,30.14,South,189,5.4,5.4,77,0.00,,---,0.00,VWS V13.01,2013-11-08 00:54:00,
2013-11-07 20:00:00,39.2,32.6,30.14,SSE,162,5.8,5.8,77,0.00,,---,0.00,VWS V13.01,2013-11-08 01:00:00,
2013-11-07 20:05:00,39.4,32.8,30.14,WSW,246,5.4,6.7,77,0.00,,---,0.00,VWS V13.01,2013-11-08 01:05:00,
2013-11-07 20:10:00,39.4,32.8,30.14,SSW,197,3.1,4.9,77,0.00,,---,0.00,VWS V13.01,2013-11-08 01:10:00,
2013-11-07 20:15:00,39.4,32.8,30.14,South,175,4.9,5.8,77,0.00,,---,0.00,VWS V13.01,2013-11-08 01:15:00,
2013-11-07 20:20:00,39.2,32.3,30.14,SW,228,6.7,6.7,76,0.00,,---,0.00,VWS V13.01,2013-11-08 01:20:00,
2013-11-07 20:25:00,39.0,32.1,30.14,SSW,203,4.0,5.4,76,0.00,,---,0.00,VWS V13.01,2013-11-08 01:25:00,
2013-11-07 20:30:00,38.8,31.9,30.14,SSW,193,4.0,5.8,76,0.00,,---,0.00,VWS V13.01,2013-11-08 01:30:00,
2013-11-07 20:35:00,38.8,31.9,30.14,SSW,196,4.5,5.4,76,0.00,,---,0.00,VWS V13.01,2013-11-08 01:35:00,
2013-11-07 20:40:00,38.7,31.4,30.14,SSE,158,5.8,5.8,75,0.00,,---,0.00,VWS V13.01,2013-11-08 01:40:00,
2013-11-07 20:45:00,38.7,31.4,30.14,SSW,203,5.4,6.3,75,0.00,,---,0.00,VWS V13.01,2013-11-08 01:45:00,
2013-11-07 20:50:00,38.5,31.3,30.14,SSW,212,4.5,5.8,75,0.00,,---,0.00,VWS V13.01,2013-11-08 01:50:00,
2013-11-07 20:55:00,38.5,31.3,30.14,SSW,206,4.0,7.4,75,0.00,,---,0.00,VWS V13.01,2013-11-08 01:55:00,
2013-11-07 21:00:00,38.3,31.1,30.14,SW,217,4.5,6.7,75,0.00,,---,0.00,VWS V13.01,2013-11-08 02:00:00,
2013-11-07 21:05:00,38.1,30.9,30.14,SSW,192,3.6,6.3,75,0.00,,---,0.00,VWS V13.01,2013-11-08 02:05:00,
2013-11-07 21:10:00,38.1,30.9,30.14,SSW,199,6.3,6.9,75,0.00,,---,0.00,VWS V13.01,2013-11-08 02:10:00,
2013-11-07 21:15:00,37.9,30.7,30.14,SW,227,4.0,6.3,75,0.00,,---,0.00,VWS V13.01,2013-11-08 02:15:00,
2013-11-07 21:20:00,37.9,30.7,30.14,SSW,194,5.4,6.7,75,0.00,,---,0.00,VWS V13.01,2013-11-08 02:20:00,
2013-11-07 21:25:00,37.9,30.7,30.14,SSW,203,4.5,6.7,75,0.00,,---,0.00,VWS V13.01,2013-11-08 02:25:00,
2013-11-07 21:30:00,37.8,30.6,30.14,SSW,200,3.6,5.8,75,0.00,,---,0.00,VWS V13.01,2013-11-08 02:30:00,
2013-11-07 21:35:00,37.8,30.6,30.14,SSW,194,4.9,5.4,75,0.00,,---,0.00,VWS V13.01,2013-11-08 02:35:00,
2013-11-07 21:40:00,37.6,30.4,30.14,SSW,195,4.0,5.4,75,0.00,,---,0.00,VWS V13.01,2013-11-08 02:40:00,
2013-11-07 21:45:00,37.6,30.4,30.14,SSW,200,0.0,4.0,75,0.00,,---,0.00,VWS V13.01,2013-11-08 02:45:00,
2013-11-07 21:50:00,37.6,30.4,30.14,SSW,200,2.7,3.6,75,0.00,,---,0.00,VWS V13.01,2013-11-08 02:50:00,
2013-11-07 21:55:00,37.6,30.4,30.14,SSW,201,4.0,4.9,75,0.00,,---,0.00,VWS V13.01,2013-11-08 02:55:00,
2013-11-07 22:00:00,37.6,30.4,30.14,SSW,203,4.0,4.0,75,0.00,,---,0.00,VWS V13.01,2013-11-08 03:00:00,
2013-11-07 22:05:00,37.8,30.6,30.14,SSW,203,3.6,4.5,75,0.00,,---,0.00,VWS V13.01,2013-11-08 03:05:00,
2013-11-07 22:10:00,37.9,30.7,30.14,South,188,3.1,6.7,75,0.00,,---,0.00,VWS V13.01,2013-11-08 03:10:00,
2013-11-07 22:15:00,38.1,30.9,30.14,SSW,197,3.6,4.5,75,0.00,,---,0.00,VWS V13.01,2013-11-08 03:15:00,
2013-11-07 22:20:00,38.1,30.6,30.14,SSW,213,4.0,5.4,74,0.00,,---,0.00,VWS V13.01,2013-11-08 03:20:00,
2013-11-07 22:25:00,37.9,30.4,30.14,SW,214,3.1,4.0,74,0.00,,---,0.00,VWS V13.01,2013-11-08 03:25:00,
2013-11-07 22:30:00,37.9,30.1,30.14,SW,214,4.0,4.0,73,0.00,,---,0.00,VWS V13.01,2013-11-08 03:30:00,
2013-11-07 22:35:00,38.1,30.2,30.17,SSW,200,4.5,4.5,73,0.00,,---,0.00,VWS V13.01,2013-11-08 03:35:00,
2013-11-07 22:40:00,37.9,30.1,30.17,South,188,4.5,4.9,73,0.00,,---,0.00,VWS V13.01,2013-11-08 03:40:00,
2013-11-07 22:45:00,37.9,29.7,30.17,SSW,196,4.5,5.4,72,0.00,,---,0.00,VWS V13.01,2013-11-08 03:45:00,
2013-11-07 22:50:00,37.9,29.7,30.17,SSW,197,4.9,5.4,72,0.00,,---,0.00,VWS V13.01,2013-11-08 03:50:00,
2013-11-07 22:55:00,37.9,29.7,30.17,SW,219,4.9,4.9,72,0.00,,---,0.00,VWS V13.01,2013-11-08 03:55:00,
2013-11-07 23:00:00,38.1,29.6,30.17,SSW,205,4.0,5.8,71,0.00,,---,0.00,VWS V13.01,2013-11-08 04:00:00,
2013-11-07 23:05:00,38.1,29.6,30.17,SSW,198,4.9,5.4,71,0.00,,---,0.00,VWS V13.01,2013-11-08 04:05:00,
2013-11-07 23:10:00,37.9,29.0,30.17,South,176,3.1,4.9,70,0.00,,---,0.00,VWS V13.01,2013-11-08 04:10:00,
2013-11-07 23:15:00,37.9,29.0,30.17,SSW,196,2.7,4.9,70,0.00,,---,0.00,VWS V13.01,2013-11-08 04:15:00,
2013-11-07 23:20:00,38.1,29.2,30.17,SSW,197,2.7,3.6,70,0.00,,---,0.00,VWS V13.01,2013-11-08 04:20:00,
2013-11-07 23:25:00,38.3,29.4,30.17,SSW,199,3.6,4.5,70,0.00,,---,0.00,VWS V13.01,2013-11-08 04:25:00,
2013-11-07 23:30:00,38.5,29.6,30.17,SSW,200,0.0,0.0,70,0.00,,---,0.00,VWS V13.01,2013-11-08 04:30:00,
2013-11-07 23:35:00,38.7,29.7,30.17,SW,231,0.0,0.0,70,0.00,,---,0.00,VWS V13.01,2013-11-08 04:35:00,
2013-11-07 23:40:00,38.7,29.7,30.17,WSW,249,0.0,0.0,70,0.00,,---,0.00,VWS V13.01,2013-11-08 04:40:00,
2013-11-07 23:45:00,38.5,29.2,30.17,WSW,249,2.7,4.0,69,0.00,,---,0.00,VWS V13.01,2013-11-08 04:45:00,
2013-11-07 23:50:00,38.3,29.0,30.17,WSW,239,3.1,4.5,69,0.00,,---,0.00,VWS V13.01,2013-11-08 04:50:00,
2013-11-07 23:55:00,37.9,28.7,30.17,SW,234,4.5,4.5,69,0.00,,---,0.00,VWS V13.01,2013-11-08 04:55:00,